Flag Weather past 2 weeks in Guildford, England, United Kingdom

Now
34 °F

Fog.


Feels Like: 34 °F
Forecast: N/A
Wind: 1 mph from Southeast

Location: Farnborough Airport

Current Time: Nov 20, 2014 at 11:37:26 PM

Latest Report: Nov 20, 2014 at 9:20 PM


Visibility: 1 mi

Pressure: 30.24 "Hg

Humidity: 100%

Dew point: 34 °F

Location of GuildfordLocation

Historic Weather in Guildford — Graph

°F

Guildford temperature yesterday

Maximum temperature yesterday: 54 °F (at 12:50 PM)
Minimum temperature yesterday: 41 °F (at 6:20 PM)
Average temperature yesterday: 47 °F

Past Weeks' High & Low Weather Summary

 TemperatureHumidityPressure
High57 °F (Nov 8, 1:20 PM)100% (Nov 6, 6:50 AM)30.27 "Hg (Nov 6, 6:50 AM)
Low28 °F (Nov 6, 6:50 AM)63% (Nov 9, 1:20 PM)29.21 "Hg (Nov 7, 6:50 AM)
Average49 °F89%29.64 "Hg
* Reported Nov 6 6:50 AM — Nov 20 9:20 PM, Guildford, Weather by CustomWeather, © 2014

Note: Actual official high and low records may vary slightly from our data, if they occured in-between our weather recording intervals... More about our weather records

Advertising

Guildford weather history for previous 24 hours

 ConditionsComfort  
Time TempWeatherWind HumidityBarometerVisibility
9:20 PM
Nov 20
34 °FFog.1 mph100%30.24 "Hg1 mi
8:50 PM37 °FFog.1 mph93%30.24 "Hg1 mi
8:20 PM43 °FFog.6 mph93%30.21 "Hg2 mi
7:20 PM45 °FFog.7 mph93%30.24 "Hg2 mi
6:50 PM41 °FFog.1 mph93%30.21 "Hg2 mi
6:20 PM41 °FHaze.2 mph93%30.21 "Hg2 mi
5:50 PM45 °FHaze.6 mph93%30.21 "Hg3 mi
5:20 PM45 °FClear.7 mph93%30.21 "Hg6 mi
4:50 PM45 °FClear.5 mph93%30.24 "Hg6 mi
4:20 PM45 °FClear.5 mph93%30.21 "HgN/A
3:50 PM48 °FPassing clouds.7 mph82%30.21 "HgN/A
3:20 PM48 °FPassing clouds.5 mph87%30.21 "Hg6 mi
2:50 PM48 °FScattered clouds.6 mph87%30.21 "Hg6 mi
2:20 PM48 °FPassing clouds.7 mph82%30.24 "Hg5 mi
1:50 PM50 °FScattered clouds.7 mph82%30.24 "Hg5 mi
1:20 PM50 °FPassing clouds.8 mph82%30.24 "Hg5 mi
12:50 PM48 °FPartly sunny.9 mph87%30.24 "Hg4 mi
12:20 PM48 °FSnow. Scattered clouds.9 mph87%30.24 "Hg4 mi
11:50 AM48 °FScattered clouds.9 mph87%30.24 "Hg3 mi
11:20 AM46 °FHaze.8 mph93%30.27 "Hg3 mi
10:50 AM46 °FHaze.6 mph93%30.27 "Hg2 mi
10:20 AM45 °FFog.7 mph93%30.27 "Hg2 mi
9:50 AM45 °FFog.5 mph100%30.27 "Hg2 mi
9:20 AM45 °FFog.7 mph93%30.24 "Hg2 mi
8:50 AM45 °FFog.6 mph93%30.24 "Hg2 mi
8:20 AM43 °FFog.6 mph100%30.24 "Hg2 mi
7:50 AM43 °FFog.6 mph93%30.24 "Hg2 mi
7:20 AM43 °FFog.6 mph93%30.24 "Hg2 mi
6:50 AM45 °FPassing clouds.6 mph93%30.24 "Hg3 mi
Weather by CustomWeather, © 2014

See weather overviewHow to use our weather pages